Time,TemperatureF,DewpointF,PressureIn,WindDirection,WindDirectionDegrees,WindSpeedMPH,WindSpeedGustMPH,Humidity,HourlyPrecipIn,Conditions,Clouds,dailyrainin,SoftwareType,DateUTC
2013-06-07 00:08:00,55.2,55.0,29.85,SSE,167,0.0,-999.0,98,-99.99,,,0.60,weatherlink.com 1.10,2013-06-07 04:08:00,
2013-06-07 00:23:00,55.6,55.0,29.84,ENE,61,0.0,-999.0,99,-99.99,,,0.60,weatherlink.com 1.10,2013-06-07 04:23:00,
2013-06-07 00:53:00,56.2,56.0,29.83,East,95,0.0,-999.0,98,-99.99,,,0.60,weatherlink.com 1.10,2013-06-07 04:53:00,
2013-06-07 01:08:00,56.1,56.0,29.83,East,95,0.0,-999.0,98,-99.99,,,0.60,weatherlink.com 1.10,2013-06-07 05:08:00,
2013-06-07 01:23:00,56.4,56.0,29.83,NE,46,0.0,-999.0,99,-99.99,,,0.60,weatherlink.com 1.10,2013-06-07 05:23:00,
2013-06-07 01:38:00,57.0,57.0,29.83,ENE,66,0.0,-999.0,99,-99.99,,,0.60,weatherlink.com 1.10,2013-06-07 05:38:00,
2013-06-07 01:53:00,56.6,56.0,29.82,ENE,68,0.0,-999.0,98,-99.99,,,0.60,weatherlink.com 1.10,2013-06-07 05:53:00,
2013-06-07 02:08:00,57.1,57.0,29.82,East,86,0.0,-999.0,98,-99.99,,,0.60,weatherlink.com 1.10,2013-06-07 06:08:00,
2013-06-07 02:23:00,57.0,57.0,29.82,East,101,0.0,-999.0,98,-99.99,,,0.60,weatherlink.com 1.10,2013-06-07 06:23:00,
2013-06-07 02:38:00,57.1,57.0,29.82,East,87,0.0,-999.0,98,-99.99,,,0.60,weatherlink.com 1.10,2013-06-07 06:38:00,
2013-06-07 02:53:00,57.3,57.0,29.81,ENE,72,0.0,-999.0,99,-99.99,,,0.60,weatherlink.com 1.10,2013-06-07 06:53:00,
2013-06-07 03:08:00,57.7,58.0,29.81,ENE,61,0.0,-999.0,99,-99.99,,,0.60,weatherlink.com 1.10,2013-06-07 07:08:00,
2013-06-07 03:23:00,57.7,57.0,29.81,ENE,61,0.0,-999.0,98,-99.99,,,0.60,weatherlink.com 1.10,2013-06-07 07:23:00,
2013-06-07 03:38:00,57.8,58.0,29.81,ENE,61,0.0,-999.0,99,-99.99,,,0.60,weatherlink.com 1.10,2013-06-07 07:38:00,
2013-06-07 03:53:00,57.5,57.0,29.81,ENE,63,0.0,-999.0,99,-99.99,,,0.60,weatherlink.com 1.10,2013-06-07 07:53:00,
2013-06-07 04:23:00,56.9,57.0,29.81,ENE,62,0.0,-999.0,99,-99.99,,,0.62,weatherlink.com 1.10,2013-06-07 08:23:00,
2013-06-07 04:38:00,57.4,57.0,29.81,East,101,0.0,-999.0,99,-99.99,,,0.62,weatherlink.com 1.10,2013-06-07 08:38:00,
2013-06-07 04:53:00,58.1,58.0,29.81,East,98,0.0,-999.0,99,-99.99,,,0.62,weatherlink.com 1.10,2013-06-07 08:53:00,
2013-06-07 05:23:00,58.2,58.0,29.81,ESE,122,0.0,-999.0,99,-99.99,,,0.63,weatherlink.com 1.10,2013-06-07 09:23:00,
2013-06-07 05:38:00,58.4,58.0,29.81,ESE,113,1.0,-999.0,99,-99.99,,,0.63,weatherlink.com 1.10,2013-06-07 09:38:00,
2013-06-07 05:53:00,58.3,58.0,29.82,ESE,111,0.0,-999.0,99,-99.99,,,0.64,weatherlink.com 1.10,2013-06-07 09:53:00,
2013-06-07 06:08:00,58.5,58.0,29.82,ENE,74,0.0,-999.0,99,-99.99,,,0.64,weatherlink.com 1.10,2013-06-07 10:08:00,
2013-06-07 06:24:00,59.1,59.0,29.82,East,88,0.0,-999.0,99,-99.99,,,0.65,weatherlink.com 1.10,2013-06-07 10:24:00,
2013-06-07 06:39:00,59.0,59.0,29.82,East,96,0.0,-999.0,99,-99.99,,,0.66,weatherlink.com 1.10,2013-06-07 10:39:00,
2013-06-07 06:54:00,59.4,59.0,29.82,East,92,0.0,-999.0,99,-99.99,,,0.66,weatherlink.com 1.10,2013-06-07 10:54:00,
2013-06-07 07:09:00,59.3,59.0,29.81,ESE,111,0.0,-999.0,99,-99.99,,,0.66,weatherlink.com 1.10,2013-06-07 11:09:00,
2013-06-07 07:24:00,59.5,59.0,29.82,East,80,0.0,-999.0,99,-99.99,,,0.66,weatherlink.com 1.10,2013-06-07 11:24:00,
2013-06-07 07:39:00,59.9,60.0,29.82,East,99,0.0,-999.0,99,-99.99,,,0.66,weatherlink.com 1.10,2013-06-07 11:39:00,
2013-06-07 07:54:00,60.0,60.0,29.82,NE,49,0.0,-999.0,99,-99.99,,,0.66,weatherlink.com 1.10,2013-06-07 11:54:00,
2013-06-07 08:09:00,60.5,60.0,29.82,NE,53,0.0,-999.0,99,-99.99,,,0.66,weatherlink.com 1.10,2013-06-07 12:09:00,
2013-06-07 08:24:00,60.9,61.0,29.82,NE,56,0.0,-999.0,99,-99.99,,,0.66,weatherlink.com 1.10,2013-06-07 12:24:00,
2013-06-07 08:39:00,61.0,61.0,29.82,ENE,59,0.0,-999.0,99,-99.99,,,0.66,weatherlink.com 1.10,2013-06-07 12:39:00,
2013-06-07 08:54:00,60.5,60.0,29.82,ENE,61,0.0,-999.0,99,-99.99,,,0.66,weatherlink.com 1.10,2013-06-07 12:54:00,
2013-06-07 09:09:00,60.7,61.0,29.82,ENE,61,0.0,-999.0,99,-99.99,,,0.66,weatherlink.com 1.10,2013-06-07 13:09:00,
2013-06-07 09:24:00,60.8,61.0,29.82,East,80,0.0,-999.0,99,-99.99,,,0.66,weatherlink.com 1.10,2013-06-07 13:24:00,
2013-06-07 09:39:00,60.9,61.0,29.82,ESE,108,0.0,-999.0,99,-99.99,,,0.66,weatherlink.com 1.10,2013-06-07 13:39:00,
2013-06-07 09:54:00,61.0,61.0,29.82,SE,128,2.0,-999.0,99,-99.99,,,0.66,weatherlink.com 1.10,2013-06-07 13:54:00,
2013-06-07 10:09:00,61.3,61.0,29.82,ESE,103,1.0,-999.0,100,-99.99,,,0.66,weatherlink.com 1.10,2013-06-07 14:09:00,
2013-06-07 10:39:00,61.7,62.0,29.82,SE,126,0.0,-999.0,99,-99.99,,,0.66,weatherlink.com 1.10,2013-06-07 14:39:00,
2013-06-07 10:54:00,61.8,62.0,29.82,SE,126,0.0,-999.0,99,-99.99,,,0.66,weatherlink.com 1.10,2013-06-07 14:54:00,
2013-06-07 11:09:00,62.0,62.0,29.82,ESE,123,0.0,-999.0,99,-99.99,,,0.66,weatherlink.com 1.10,2013-06-07 15:09:00,
2013-06-07 11:39:00,62.2,62.0,29.82,ESE,109,2.0,-999.0,99,-99.99,,,0.66,weatherlink.com 1.10,2013-06-07 15:39:00,
2013-06-07 11:54:00,62.6,62.0,29.82,SE,144,0.0,-999.0,98,-99.99,,,0.66,weatherlink.com 1.10,2013-06-07 15:54:00,
2013-06-07 12:09:00,62.8,62.0,29.82,South,188,0.0,-999.0,98,-99.99,,,0.66,weatherlink.com 1.10,2013-06-07 16:09:00,
2013-06-07 12:24:00,62.8,62.0,29.82,SE,124,0.0,-999.0,96,-99.99,,,0.66,weatherlink.com 1.10,2013-06-07 16:24:00,
2013-06-07 12:39:00,63.1,62.0,29.81,SE,133,0.0,-999.0,96,-99.99,,,0.66,weatherlink.com 1.10,2013-06-07 16:39:00,
2013-06-07 12:54:00,63.2,62.0,29.81,SE,129,0.0,-999.0,96,-99.99,,,0.66,weatherlink.com 1.10,2013-06-07 16:54:00,
2013-06-07 13:09:00,63.2,62.0,29.81,SE,131,5.0,-999.0,96,-99.99,,,0.66,weatherlink.com 1.10,2013-06-07 17:09:00,
2013-06-07 13:24:00,63.0,62.0,29.80,SE,134,4.0,-999.0,96,-99.99,,,0.66,weatherlink.com 1.10,2013-06-07 17:24:00,
2013-06-07 13:39:00,63.1,62.0,29.80,SSE,148,7.0,-999.0,96,-99.99,,,0.66,weatherlink.com 1.10,2013-06-07 17:39:00,
2013-06-07 13:54:00,63.3,62.0,29.80,South,175,0.0,-999.0,95,-99.99,,,0.00,weatherlink.com 1.10,2013-06-07 17:54:00,
2013-06-07 14:09:00,63.6,62.0,29.80,NE,40,0.0,-999.0,95,-99.99,,,0.00,weatherlink.com 1.10,2013-06-07 18:09:00,
2013-06-07 14:24:00,63.7,62.0,29.80,SSE,159,0.0,-999.0,95,-99.99,,,0.00,weatherlink.com 1.10,2013-06-07 18:24:00,
2013-06-07 15:40:00,63.0,62.0,29.78,ESE,114,0.0,-999.0,97,-99.99,,,0.00,weatherlink.com 1.10,2013-06-07 19:40:00,
2013-06-07 16:10:00,62.6,62.0,29.78,East,86,0.0,-999.0,98,-99.99,,,0.00,weatherlink.com 1.10,2013-06-07 20:10:00,
2013-06-07 16:25:00,62.4,62.0,29.78,NE,39,1.0,-999.0,98,-99.99,,,0.00,weatherlink.com 1.10,2013-06-07 20:25:00,
2013-06-07 16:40:00,61.9,61.0,29.77,East,90,0.0,-999.0,98,-99.99,,,0.00,weatherlink.com 1.10,2013-06-07 20:40:00,
2013-06-07 17:10:00,61.6,61.0,29.77,SE,125,0.0,-999.0,98,-99.99,,,0.00,weatherlink.com 1.10,2013-06-07 21:10:00,
2013-06-07 17:25:00,61.4,61.0,29.77,ENE,69,0.0,-999.0,98,-99.99,,,0.00,weatherlink.com 1.10,2013-06-07 21:25:00,
2013-06-07 17:40:00,61.3,61.0,29.76,NNE,18,1.0,-999.0,98,-99.99,,,0.00,weatherlink.com 1.10,2013-06-07 21:40:00,
2013-06-07 17:55:00,61.2,61.0,29.76,North,10,2.0,-999.0,98,-99.99,,,0.00,weatherlink.com 1.10,2013-06-07 21:55:00,
2013-06-07 18:40:00,60.6,60.0,29.75,ENE,63,2.0,-999.0,98,-99.99,,,0.00,weatherlink.com 1.10,2013-06-07 22:40:00,
2013-06-07 18:55:00,60.2,60.0,29.76,NE,42,0.0,-999.0,98,-99.99,,,0.00,weatherlink.com 1.10,2013-06-07 22:55:00,
2013-06-07 19:10:00,60.0,60.0,29.76,SE,132,0.0,-999.0,98,-99.99,,,0.00,weatherlink.com 1.10,2013-06-07 23:10:00,
2013-06-07 19:40:00,59.8,59.0,29.76,ENE,67,1.0,-999.0,98,-99.99,,,0.00,weatherlink.com 1.10,2013-06-07 23:40:00,
2013-06-07 20:10:00,59.3,59.0,29.76,NE,54,1.0,-999.0,98,-99.99,,,0.00,weatherlink.com 1.10,2013-06-08 00:10:00,
2013-06-07 20:25:00,59.2,59.0,29.76,SSW,198,4.0,-999.0,98,-99.99,,,0.00,weatherlink.com 1.10,2013-06-08 00:25:00,
2013-06-07 20:40:00,59.0,59.0,29.76,NE,36,0.0,-999.0,98,-99.99,,,0.00,weatherlink.com 1.10,2013-06-08 00:40:00,
2013-06-07 20:55:00,58.7,58.0,29.75,ESE,113,0.0,-999.0,98,-99.99,,,0.00,weatherlink.com 1.10,2013-06-08 00:55:00,
2013-06-07 21:10:00,58.4,58.0,29.75,ESE,103,0.0,-999.0,98,-99.99,,,0.00,weatherlink.com 1.10,2013-06-08 01:10:00,
2013-06-07 21:25:00,58.3,58.0,29.76,NNE,25,0.0,-999.0,98,-99.99,,,0.00,weatherlink.com 1.10,2013-06-08 01:25:00,
2013-06-07 21:40:00,58.1,58.0,29.76,East,90,0.0,-999.0,98,-99.99,,,0.00,weatherlink.com 1.10,2013-06-08 01:40:00,
2013-06-07 22:10:00,57.8,57.0,29.77,ENE,69,0.0,-999.0,98,-99.99,,,0.00,weatherlink.com 1.10,2013-06-08 02:10:00,
2013-06-07 22:25:00,57.8,57.0,29.77,ESE,123,0.0,-999.0,98,-99.99,,,0.00,weatherlink.com 1.10,2013-06-08 02:25:00,
2013-06-07 22:40:00,57.9,57.0,29.76,ESE,117,0.0,-999.0,98,-99.99,,,0.00,weatherlink.com 1.10,2013-06-08 02:40:00,
2013-06-07 22:55:00,58.1,58.0,29.76,East,90,0.0,-999.0,99,-99.99,,,0.00,weatherlink.com 1.10,2013-06-08 02:55:00,
2013-06-07 23:10:00,58.2,58.0,29.75,ENE,64,0.0,-999.0,98,-99.99,,,0.00,weatherlink.com 1.10,2013-06-08 03:10:00,
2013-06-07 23:25:00,58.3,58.0,29.75,SE,126,0.0,-999.0,98,-99.99,,,0.00,weatherlink.com 1.10,2013-06-08 03:25:00,
2013-06-07 23:40:00,58.1,58.0,29.75,ENE,71,4.0,-999.0,98,-99.99,,,0.00,weatherlink.com 1.10,2013-06-08 03:40:00,
2013-06-07 23:55:00,58.0,58.0,29.76,SSE,150,5.0,-999.0,98,-99.99,,,0.00,weatherlink.com 1.10,2013-06-08 03:55:00,